Time,TemperatureF,DewpointF,PressureIn,WindDirection,WindDirectionDegrees,WindSpeedMPH,WindSpeedGustMPH,Humidity,HourlyPrecipIn,Conditions,Clouds,dailyrainin,SoftwareType,DateUTC
2013-06-06 00:00:00,54.0,51.4,30.04,North,1,0.0,0.0,91,0.00,BKN,SKC,0.35,WeatherDisplay:10.37,2013-06-05 22:00:00,
2013-06-06 00:10:00,53.9,51.3,30.03,North,1,0.0,0.0,91,0.00,BKN,SKC,0.35,WeatherDisplay:10.37,2013-06-05 22:10:00,
2013-06-06 00:20:00,54.1,51.5,30.03,North,1,0.0,0.0,91,0.00,BKN,SKC,0.35,WeatherDisplay:10.37,2013-06-05 22:20:00,
2013-06-06 00:30:00,54.5,51.9,30.03,North,1,0.0,0.0,91,0.00,BKN,SKC,0.35,WeatherDisplay:10.37,2013-06-05 22:30:00,
2013-06-06 00:40:00,54.7,52.1,30.04,North,1,0.0,0.0,91,0.00,BKN,SKC,0.35,WeatherDisplay:10.37,2013-06-05 22:40:00,
2013-06-06 00:50:00,55.0,52.5,30.04,North,1,0.0,0.0,91,0.00,BKN,SKC,0.35,WeatherDisplay:10.37,2013-06-05 22:50:00,
2013-06-06 01:00:00,54.7,52.1,30.04,North,1,0.0,0.0,91,0.00,BKN,SKC,0.35,WeatherDisplay:10.37,2013-06-05 23:00:00,
2013-06-06 01:10:00,54.7,52.4,30.03,North,1,0.0,0.0,92,0.00,BKN,SKC,0.35,WeatherDisplay:10.37,2013-06-05 23:10:00,
2013-06-06 01:20:00,54.5,52.2,30.03,North,1,0.0,0.0,92,0.00,BKN,SKC,0.35,WeatherDisplay:10.37,2013-06-05 23:20:00,
2013-06-06 01:30:00,54.5,52.2,30.03,North,1,0.0,0.0,92,0.00,BKN,SKC,0.35,WeatherDisplay:10.37,2013-06-05 23:30:00,
2013-06-06 01:40:00,54.3,52.0,30.03,North,1,0.0,0.0,92,0.00,BKN,SKC,0.35,WeatherDisplay:10.37,2013-06-05 23:40:00,
2013-06-06 01:50:00,54.1,51.9,30.03,North,1,0.0,0.0,92,0.00,BKN,SKC,0.35,WeatherDisplay:10.37,2013-06-05 23:50:00,
2013-06-06 02:00:00,54.1,51.9,30.03,North,1,0.0,0.0,92,0.00,BKN,SKC,0.35,WeatherDisplay:10.37,2013-06-06 00:00:00,
2013-06-06 02:10:00,54.1,51.9,30.03,North,1,0.0,0.0,92,0.00,BKN,SKC,0.35,WeatherDisplay:10.37,2013-06-06 00:10:00,
2013-06-06 02:20:00,54.1,51.9,30.02,North,1,0.0,0.0,92,0.00,BKN,SKC,0.35,WeatherDisplay:10.37,2013-06-06 00:20:00,
2013-06-06 02:30:00,54.2,51.9,30.02,North,1,0.0,0.0,92,0.00,BKN,SKC,0.35,WeatherDisplay:10.37,2013-06-06 00:30:00,
2013-06-06 02:40:00,54.3,52.0,30.02,North,1,0.0,0.0,92,0.00,BKN,SKC,0.35,WeatherDisplay:10.37,2013-06-06 00:40:00,
2013-06-06 02:50:00,54.3,52.0,30.02,North,1,0.0,0.0,92,0.00,BKN,SKC,0.35,WeatherDisplay:10.37,2013-06-06 00:50:00,
2013-06-06 03:00:00,54.3,52.0,30.02,North,1,0.0,0.0,92,0.00,BKN,SKC,0.35,WeatherDisplay:10.37,2013-06-06 01:00:00,
2013-06-06 03:10:00,54.3,52.0,30.02,North,1,0.0,0.0,92,0.00,BKN,SKC,0.35,WeatherDisplay:10.37,2013-06-06 01:10:00,
2013-06-06 03:20:00,54.0,51.7,30.01,North,1,0.0,0.0,92,0.00,BKN,SKC,0.35,WeatherDisplay:10.37,2013-06-06 01:20:00,
2013-06-06 03:30:00,53.8,51.5,30.02,North,1,0.0,0.0,92,0.00,BKN,SKC,0.35,WeatherDisplay:10.37,2013-06-06 01:30:00,
2013-06-06 03:40:00,53.8,51.5,30.02,North,1,0.0,0.0,92,0.00,BKN,SKC,0.35,WeatherDisplay:10.37,2013-06-06 01:40:00,
2013-06-06 03:50:00,53.8,51.5,30.02,North,1,0.0,0.0,92,0.00,BKN,SKC,0.35,WeatherDisplay:10.37,2013-06-06 01:50:00,
2013-06-06 04:00:00,54.0,51.7,30.03,North,1,0.0,0.0,92,0.00,BKN,SKC,0.35,WeatherDisplay:10.37,2013-06-06 02:00:00,
2013-06-06 04:10:00,54.0,51.7,30.02,North,1,0.0,0.0,92,0.00,BKN,SKC,0.35,WeatherDisplay:10.37,2013-06-06 02:10:00,
2013-06-06 04:20:00,54.0,51.7,30.02,North,1,0.0,0.0,92,0.00,BKN,SKC,0.35,WeatherDisplay:10.37,2013-06-06 02:20:00,
2013-06-06 04:30:00,54.0,51.7,30.03,North,1,0.0,0.0,92,0.00,BKN,SKC,0.35,WeatherDisplay:10.37,2013-06-06 02:30:00,
2013-06-06 04:40:00,54.0,51.7,30.02,North,1,0.0,0.0,92,0.00,BKN,SKC,0.35,WeatherDisplay:10.37,2013-06-06 02:40:00,
2013-06-06 04:50:00,54.0,51.7,30.02,North,1,0.0,0.0,92,0.00,BKN,SKC,0.35,WeatherDisplay:10.37,2013-06-06 02:50:00,
2013-06-06 05:00:00,54.0,51.7,30.02,North,1,0.0,0.0,92,0.00,BKN,SKC,0.35,WeatherDisplay:10.37,2013-06-06 03:00:00,
2013-06-06 05:10:00,54.0,51.7,30.02,North,1,0.0,0.0,92,0.00,BKN,SKC,0.35,WeatherDisplay:10.37,2013-06-06 03:10:00,
2013-06-06 05:20:00,54.1,51.9,30.03,North,1,0.0,0.0,92,0.00,BKN,SKC,0.35,WeatherDisplay:10.37,2013-06-06 03:20:00,
2013-06-06 05:30:00,54.3,52.0,30.03,North,1,0.0,0.0,92,0.00,BKN,SKC,0.35,WeatherDisplay:10.37,2013-06-06 03:30:00,
2013-06-06 05:40:00,54.3,52.0,30.03,North,1,0.0,0.0,92,0.00,BKN,SKC,0.35,WeatherDisplay:10.37,2013-06-06 03:40:00,
2013-06-06 05:50:00,54.7,52.4,30.04,North,1,0.0,0.0,92,0.00,BKN,SKC,0.35,WeatherDisplay:10.37,2013-06-06 03:50:00,
2013-06-06 06:00:00,54.9,52.6,30.05,North,1,0.0,0.0,92,0.00,BKN,SKC,0.35,WeatherDisplay:10.37,2013-06-06 04:00:00,
2013-06-06 06:10:00,55.1,53.1,30.05,North,1,0.0,0.0,93,0.00,BKN,SKC,0.35,WeatherDisplay:10.37,2013-06-06 04:10:00,
2013-06-06 06:20:00,55.4,53.4,30.05,North,1,0.0,0.0,93,0.00,BKN,SKC,0.35,WeatherDisplay:10.37,2013-06-06 04:20:00,
2013-06-06 06:30:00,55.9,53.9,30.05,North,1,0.0,0.0,93,0.00,BKN,SKC,0.35,WeatherDisplay:10.37,2013-06-06 04:30:00,
2013-06-06 06:40:00,56.2,54.3,30.05,North,1,0.0,0.0,93,0.00,BKN,SKC,0.35,WeatherDisplay:10.37,2013-06-06 04:40:00,
2013-06-06 06:50:00,56.8,54.8,30.05,North,1,0.0,0.0,93,0.00,BKN,SKC,0.35,WeatherDisplay:10.37,2013-06-06 04:50:00,
2013-06-06 07:00:00,57.4,55.4,30.05,North,1,0.0,0.0,93,0.00,BKN,SKC,0.35,WeatherDisplay:10.37,2013-06-06 05:00:00,
2013-06-06 07:10:00,58.4,56.4,30.06,North,1,0.0,0.0,93,0.00,BKN,SKC,0.35,WeatherDisplay:10.37,2013-06-06 05:10:00,
2013-06-06 07:20:00,59.0,57.0,30.05,North,1,0.0,0.0,93,0.00,BKN,SKC,0.35,WeatherDisplay:10.37,2013-06-06 05:20:00,
2013-06-06 07:30:00,59.2,56.9,30.05,North,1,0.0,0.0,92,0.00,BKN,SKC,0.35,WeatherDisplay:10.37,2013-06-06 05:30:00,
2013-06-06 07:40:00,59.2,56.9,30.05,North,1,0.0,0.0,92,0.00,BKN,SKC,0.35,WeatherDisplay:10.37,2013-06-06 05:40:00,
2013-06-06 07:50:00,59.5,57.2,30.06,North,1,0.0,0.0,92,0.00,BKN,SKC,0.35,WeatherDisplay:10.37,2013-06-06 05:50:00,
2013-06-06 08:00:00,60.6,58.6,30.06,North,1,0.0,0.0,93,0.00,RA,SKC,0.00,WeatherDisplay:10.37,2013-06-06 06:00:00,
2013-06-06 08:10:00,61.9,59.8,30.06,North,1,0.0,0.0,93,0.00,BKN,SKC,0.00,WeatherDisplay:10.37,2013-06-06 06:10:00,
2013-06-06 08:20:00,61.7,59.4,30.06,North,1,0.0,0.0,92,0.00,BKN,SKC,0.00,WeatherDisplay:10.37,2013-06-06 06:20:00,
2013-06-06 08:30:00,61.7,59.4,30.06,North,1,0.0,0.0,92,0.00,BKN,SKC,0.00,WeatherDisplay:10.37,2013-06-06 06:30:00,
2013-06-06 08:40:00,61.7,59.0,30.07,North,1,0.0,0.0,91,0.00,BKN,SKC,0.00,WeatherDisplay:10.37,2013-06-06 06:40:00,
2013-06-06 08:50:00,61.9,58.9,30.07,North,1,0.0,0.0,90,0.00,BKN,SKC,0.00,WeatherDisplay:10.37,2013-06-06 06:50:00,
2013-06-06 09:00:00,61.9,58.9,30.07,North,1,0.0,0.0,90,0.00,BKN,SKC,0.00,WeatherDisplay:10.37,2013-06-06 07:00:00,
2013-06-06 09:10:00,62.2,58.3,30.08,North,1,0.0,0.0,87,0.00,BKN,SKC,0.00,WeatherDisplay:10.37,2013-06-06 07:10:00,
2013-06-06 09:20:00,62.4,58.2,30.08,North,1,0.0,0.0,86,0.00,BKN,SKC,0.00,WeatherDisplay:10.37,2013-06-06 07:20:00,
2013-06-06 09:30:00,62.2,58.0,30.08,North,1,0.0,0.0,86,0.00,BKN,SKC,0.00,WeatherDisplay:10.37,2013-06-06 07:30:00,
2013-06-06 09:40:00,62.2,58.0,30.08,North,1,0.0,0.0,86,0.00,BKN,SKC,0.00,WeatherDisplay:10.37,2013-06-06 07:40:00,
2013-06-06 09:50:00,61.9,58.0,30.08,North,1,0.0,0.0,87,0.00,BKN,SKC,0.00,WeatherDisplay:10.37,2013-06-06 07:50:00,
2013-06-06 10:00:00,61.5,57.9,30.08,North,1,0.0,0.0,88,0.00,BKN,SKC,0.00,WeatherDisplay:10.37,2013-06-06 08:00:00,
2013-06-06 10:10:00,61.3,57.8,30.07,North,1,0.0,0.0,88,0.00,BKN,SKC,0.00,WeatherDisplay:10.37,2013-06-06 08:10:00,
2013-06-06 10:20:00,61.3,57.8,30.07,North,1,0.0,0.0,88,0.00,RA,SKC,0.02,WeatherDisplay:10.37,2013-06-06 08:20:00,
2013-06-06 10:30:00,61.5,58.2,30.08,North,1,0.0,0.0,89,0.00,BKN,SKC,0.02,WeatherDisplay:10.37,2013-06-06 08:30:00,
2013-06-06 10:40:00,61.7,58.4,30.08,North,1,0.0,0.0,89,0.00,BKN,SKC,0.02,WeatherDisplay:10.37,2013-06-06 08:40:00,
2013-06-06 10:50:00,62.2,59.0,30.08,North,1,0.0,0.0,89,0.00,BKN,SKC,0.02,WeatherDisplay:10.37,2013-06-06 08:50:00,
2013-06-06 11:00:00,62.7,59.4,30.07,North,1,0.0,0.0,89,0.00,BKN,SKC,0.02,WeatherDisplay:10.37,2013-06-06 09:00:00,
2013-06-06 11:10:00,63.1,59.8,30.07,North,1,0.0,0.0,89,0.00,BKN,SKC,0.02,WeatherDisplay:10.37,2013-06-06 09:10:00,
2013-06-06 11:20:00,63.0,59.3,30.08,North,1,0.0,0.0,88,0.00,BKN,SKC,0.02,WeatherDisplay:10.37,2013-06-06 09:20:00,
2013-06-06 11:30:00,63.1,59.5,30.08,North,1,0.0,0.0,88,0.00,BKN,SKC,0.02,WeatherDisplay:10.37,2013-06-06 09:30:00,
2013-06-06 11:40:00,63.7,60.1,30.07,North,1,0.0,0.0,88,0.00,BKN,SKC,0.02,WeatherDisplay:10.37,2013-06-06 09:40:00,
2013-06-06 11:50:00,64.2,60.6,30.07,North,1,0.0,0.0,88,0.00,BKN,SKC,0.02,WeatherDisplay:10.37,2013-06-06 09:50:00,
2013-06-06 12:00:00,64.2,59.6,30.07,North,1,0.0,0.0,85,0.00,BKN,SKC,0.02,WeatherDisplay:10.37,2013-06-06 10:00:00,
2013-06-06 12:10:00,64.5,59.9,30.07,North,1,0.0,0.0,85,0.00,BKN,SKC,0.02,WeatherDisplay:10.37,2013-06-06 10:10:00,
2013-06-06 12:20:00,64.9,60.0,30.08,North,1,0.0,0.0,84,0.00,BKN,SKC,0.02,WeatherDisplay:10.37,2013-06-06 10:20:00,
2013-06-06 12:30:00,65.1,59.5,30.07,North,1,0.0,0.0,82,0.00,BKN,SKC,0.02,WeatherDisplay:10.37,2013-06-06 10:30:00,
2013-06-06 12:40:00,65.3,59.3,30.07,North,1,0.0,0.0,81,0.00,BKN,SKC,0.02,WeatherDisplay:10.37,2013-06-06 10:40:00,
2013-06-06 12:50:00,65.5,59.5,30.07,North,1,0.0,0.0,81,0.00,BKN,SKC,0.02,WeatherDisplay:10.37,2013-06-06 10:50:00,
2013-06-06 13:00:00,65.7,59.3,30.07,North,1,0.0,0.0,80,0.00,BKN,SKC,0.02,WeatherDisplay:10.37,2013-06-06 11:00:00,
2013-06-06 13:10:00,66.0,59.7,30.07,North,1,0.0,0.0,80,0.00,BKN,SKC,0.02,WeatherDisplay:10.37,2013-06-06 11:10:00,
2013-06-06 13:20:00,66.7,60.0,30.07,North,1,0.0,0.0,79,0.00,BKN,SKC,0.02,WeatherDisplay:10.37,2013-06-06 11:20:00,
2013-06-06 13:30:00,67.3,59.8,30.07,North,1,0.0,0.0,77,0.00,BKN,SKC,0.02,WeatherDisplay:10.37,2013-06-06 11:30:00,
2013-06-06 13:40:00,67.3,59.8,30.07,North,1,0.0,0.0,77,0.00,BKN,SKC,0.02,WeatherDisplay:10.37,2013-06-06 11:40:00,
2013-06-06 13:50:00,68.1,60.6,30.07,North,1,0.0,0.0,77,0.00,BKN,SKC,0.02,WeatherDisplay:10.37,2013-06-06 11:50:00,
2013-06-06 14:00:00,68.2,60.3,30.07,North,1,0.0,0.0,76,0.00,BKN,SKC,0.02,WeatherDisplay:10.37,2013-06-06 12:00:00,
2013-06-06 14:10:00,68.0,59.8,30.06,North,1,0.0,0.0,75,0.00,BKN,SKC,0.02,WeatherDisplay:10.37,2013-06-06 12:10:00,
2013-06-06 14:20:00,67.8,60.0,30.06,North,1,0.0,0.0,76,0.00,BKN,SKC,0.02,WeatherDisplay:10.37,2013-06-06 12:20:00,
2013-06-06 14:30:00,67.3,59.8,30.06,North,1,0.0,0.0,77,0.00,BKN,SKC,0.02,WeatherDisplay:10.37,2013-06-06 12:30:00,
2013-06-06 14:40:00,66.6,59.1,30.06,North,1,0.0,0.0,77,0.00,BKN,SKC,0.02,WeatherDisplay:10.37,2013-06-06 12:40:00,
2013-06-06 14:50:00,64.8,58.8,30.07,North,1,0.0,0.0,81,0.00,BKN,SKC,0.02,WeatherDisplay:10.37,2013-06-06 12:50:00,
2013-06-06 15:00:00,63.1,58.2,30.07,North,1,0.0,0.0,84,0.08,RA,SKC,0.18,WeatherDisplay:10.37,2013-06-06 13:00:00,
2013-06-06 15:10:00,61.9,57.6,30.07,North,1,0.0,0.0,86,0.00,RA,SKC,0.20,WeatherDisplay:10.37,2013-06-06 13:10:00,
2013-06-06 15:20:00,61.7,57.8,30.07,North,1,0.0,0.0,87,0.00,BKN,SKC,0.20,WeatherDisplay:10.37,2013-06-06 13:20:00,
2013-06-06 15:30:00,61.8,57.9,30.06,North,1,0.0,0.0,87,0.00,BKN,SKC,0.20,WeatherDisplay:10.37,2013-06-06 13:30:00,
2013-06-06 15:40:00,62.2,58.6,30.06,North,1,0.0,0.0,88,0.00,BKN,SKC,0.20,WeatherDisplay:10.37,2013-06-06 13:40:00,
2013-06-06 15:50:00,63.3,59.7,30.06,North,1,0.0,0.0,88,0.00,BKN,SKC,0.20,WeatherDisplay:10.37,2013-06-06 13:50:00,
2013-06-06 16:00:00,65.0,61.4,30.05,North,1,0.0,0.0,88,0.00,BKN,SKC,0.20,WeatherDisplay:10.37,2013-06-06 14:00:00,
2013-06-06 16:10:00,66.4,62.1,30.05,North,1,0.0,0.0,86,0.00,BKN,SKC,0.20,WeatherDisplay:10.37,2013-06-06 14:10:00,
2013-06-06 16:20:00,67.4,62.1,30.05,North,1,0.0,0.0,83,0.00,BKN,SKC,0.20,WeatherDisplay:10.37,2013-06-06 14:20:00,
2013-06-06 16:30:00,68.6,63.2,30.05,North,1,0.0,0.0,83,0.00,BKN,SKC,0.20,WeatherDisplay:10.37,2013-06-06 14:30:00,
2013-06-06 16:40:00,68.2,62.1,30.05,North,1,0.0,0.0,81,0.00,BKN,SKC,0.20,WeatherDisplay:10.37,2013-06-06 14:40:00,
2013-06-06 16:50:00,67.3,61.6,30.05,North,1,0.0,0.0,82,0.00,BKN,SKC,0.20,WeatherDisplay:10.37,2013-06-06 14:50:00,
2013-06-06 17:00:00,68.0,62.6,30.04,North,1,0.0,0.0,83,0.00,BKN,SKC,0.20,WeatherDisplay:10.37,2013-06-06 15:00:00,
2013-06-06 17:10:00,68.2,62.5,30.04,North,1,0.0,0.0,82,0.00,BKN,SKC,0.20,WeatherDisplay:10.37,2013-06-06 15:10:00,
2013-06-06 17:20:00,68.9,62.8,30.03,North,1,0.0,0.0,81,0.00,BKN,SKC,0.20,WeatherDisplay:10.37,2013-06-06 15:20:00,
2013-06-06 17:30:00,68.6,62.2,30.03,North,1,0.0,0.0,80,0.00,BKN,SKC,0.20,WeatherDisplay:10.37,2013-06-06 15:30:00,
2013-06-06 17:40:00,68.2,62.1,30.03,North,1,0.0,0.0,81,0.00,BKN,SKC,0.20,WeatherDisplay:10.37,2013-06-06 15:40:00,
2013-06-06 17:50:00,67.8,61.4,30.03,North,1,0.0,0.0,80,0.00,BKN,SKC,0.20,WeatherDisplay:10.37,2013-06-06 15:50:00,
2013-06-06 18:00:00,67.5,60.7,30.03,North,1,0.0,0.0,79,0.00,BKN,SKC,0.20,WeatherDisplay:10.37,2013-06-06 16:00:00,
2013-06-06 18:10:00,66.9,60.2,30.02,North,1,0.0,0.0,79,0.00,BKN,SKC,0.20,WeatherDisplay:10.37,2013-06-06 16:10:00,
2013-06-06 18:20:00,66.7,60.0,30.02,North,1,0.0,0.0,79,0.00,BKN,SKC,0.20,WeatherDisplay:10.37,2013-06-06 16:20:00,
2013-06-06 18:30:00,66.6,59.9,30.02,North,1,0.0,0.0,79,0.00,BKN,SKC,0.20,WeatherDisplay:10.37,2013-06-06 16:30:00,
2013-06-06 18:40:00,66.7,60.0,30.02,North,1,0.0,0.0,79,0.00,BKN,SKC,0.20,WeatherDisplay:10.37,2013-06-06 16:40:00,
2013-06-06 18:50:00,66.2,59.5,30.02,North,1,0.0,0.0,79,0.00,BKN,SKC,0.20,WeatherDisplay:10.37,2013-06-06 16:50:00,
2013-06-06 19:00:00,66.2,59.5,30.02,North,1,0.0,0.0,79,0.00,BKN,SKC,0.20,WeatherDisplay:10.37,2013-06-06 17:00:00,
2013-06-06 19:10:00,66.0,59.3,30.02,North,1,0.0,0.0,79,0.00,BKN,SKC,0.20,WeatherDisplay:10.37,2013-06-06 17:10:00,
2013-06-06 19:20:00,65.9,59.5,30.03,North,1,0.0,0.0,80,0.00,BKN,SKC,0.20,WeatherDisplay:10.37,2013-06-06 17:20:00,
2013-06-06 19:30:00,65.7,59.4,30.02,North,1,0.0,0.0,80,0.00,BKN,SKC,0.20,WeatherDisplay:10.37,2013-06-06 17:30:00,
2013-06-06 19:40:00,65.5,59.5,30.03,North,1,0.0,0.0,81,0.00,BKN,SKC,0.20,WeatherDisplay:10.37,2013-06-06 17:40:00,
2013-06-06 19:50:00,65.1,59.5,30.02,North,1,0.0,0.0,82,0.00,BKN,SKC,0.20,WeatherDisplay:10.37,2013-06-06 17:50:00,
2013-06-06 20:00:00,64.6,59.3,30.03,North,1,0.0,0.0,83,0.00,BKN,SKC,0.20,WeatherDisplay:10.37,2013-06-06 18:00:00,
2013-06-06 20:10:00,64.0,58.8,30.03,North,1,0.0,0.0,83,0.00,BKN,SKC,0.20,WeatherDisplay:10.37,2013-06-06 18:10:00,
2013-06-06 20:20:00,63.2,58.6,30.03,North,1,0.0,0.0,85,0.00,BKN,SKC,0.20,WeatherDisplay:10.37,2013-06-06 18:20:00,
2013-06-06 20:30:00,62.5,57.9,30.03,North,1,0.0,0.0,85,0.00,BKN,SKC,0.20,WeatherDisplay:10.37,2013-06-06 18:30:00,
2013-06-06 20:40:00,61.9,57.6,30.03,North,1,0.0,0.0,86,0.00,BKN,SKC,0.20,WeatherDisplay:10.37,2013-06-06 18:40:00,
2013-06-06 20:50:00,61.5,57.6,30.03,North,1,0.0,0.0,87,0.00,BKN,SKC,0.20,WeatherDisplay:10.37,2013-06-06 18:50:00,
2013-06-06 21:00:00,61.0,57.4,30.03,North,1,0.0,0.0,88,0.00,BKN,SKC,0.20,WeatherDisplay:10.37,2013-06-06 19:00:00,
2013-06-06 21:10:00,60.6,57.0,30.04,North,1,0.0,0.0,88,0.00,BKN,SKC,0.20,WeatherDisplay:10.37,2013-06-06 19:10:00,
2013-06-06 21:20:00,60.4,56.9,30.04,North,1,0.0,0.0,88,0.00,BKN,SKC,0.20,WeatherDisplay:10.37,2013-06-06 19:20:00,
2013-06-06 21:30:00,59.9,56.6,30.04,North,1,0.0,0.0,89,0.00,BKN,SKC,0.20,WeatherDisplay:10.37,2013-06-06 19:30:00,
2013-06-06 21:40:00,59.7,56.5,30.05,North,1,0.0,0.0,89,0.00,BKN,SKC,0.20,WeatherDisplay:10.37,2013-06-06 19:40:00,
2013-06-06 21:50:00,59.7,56.8,30.05,North,1,0.0,0.0,90,0.00,BKN,SKC,0.20,WeatherDisplay:10.37,2013-06-06 19:50:00,
2013-06-06 22:00:00,59.9,57.0,30.05,North,1,0.0,0.0,90,0.00,BKN,SKC,0.20,WeatherDisplay:10.37,2013-06-06 20:00:00,
2013-06-06 22:20:00,60.1,57.1,30.05,North,1,0.0,0.0,90,0.00,BKN,SKC,0.20,WeatherDisplay:10.37,2013-06-06 20:20:00,
2013-06-06 22:30:00,60.0,57.0,30.05,North,1,0.0,0.0,90,0.00,BKN,SKC,0.20,WeatherDisplay:10.37,2013-06-06 20:30:00,
2013-06-06 22:40:00,60.1,57.1,30.05,North,1,0.0,0.0,90,0.00,BKN,SKC,0.20,WeatherDisplay:10.37,2013-06-06 20:40:00,
2013-06-06 22:50:00,60.1,57.1,30.04,North,1,0.0,0.0,90,0.00,BKN,SKC,0.20,WeatherDisplay:10.37,2013-06-06 20:50:00,
2013-06-06 23:00:00,60.1,57.1,30.04,North,1,0.0,0.0,90,0.00,BKN,SKC,0.20,WeatherDisplay:10.37,2013-06-06 21:00:00,
2013-06-06 23:10:00,59.9,57.0,30.04,North,1,0.0,0.0,90,0.00,BKN,SKC,0.20,WeatherDisplay:10.37,2013-06-06 21:10:00,
2013-06-06 23:20:00,59.6,56.9,30.04,North,1,0.0,0.0,91,0.00,BKN,SKC,0.20,WeatherDisplay:10.37,2013-06-06 21:20:00,
2013-06-06 23:30:00,59.5,56.9,30.04,North,1,0.0,0.0,91,0.00,BKN,SKC,0.20,WeatherDisplay:10.37,2013-06-06 21:30:00,
2013-06-06 23:40:00,59.5,56.9,30.05,North,1,0.0,0.0,91,0.00,BKN,SKC,0.20,WeatherDisplay:10.37,2013-06-06 21:40:00,
2013-06-06 23:50:00,59.7,56.8,30.05,North,1,0.0,0.0,90,0.00,BKN,SKC,0.20,WeatherDisplay:10.37,2013-06-06 21:50:00,